Regional Weather Roundup
Issued by NWS Newport/Morehead, NC

Current Version | Previous Version | Text Only | Print | Product List | Glossary Off
Versions: 1 2 3 4 5 6 7 8 9 10 11 12 13 14 15 16 17 18 19 20 21 22 23 24 25 26 27 28 29 30 31 32 33 34 35 36 37 38 39 40 41 42 43 44 45 46 47 48 49 50

000
ASUS42 KMHX 062213
RWRMHX
WEATHER ROUNDUP FOR EASTERN NORTH CAROLINA
NATIONAL WEATHER SERVICE NEWPORT/MOREHEAD CITY NC
600 PM EDT WED MAY 06 2015

NOTE: "FAIR" INDICATES FEW OR NO CLOUDS BELOW 12,000 FEET
WITH NO SIGNIFICANT WEATHER AND/OR OBSTRUCTIONS TO VISIBILITY

NCZ015>017-031-032-045>047-102-103-062300-
NORTH COAST

CITY           SKY/WX    TMP DP  RH WIND       PRES   REMARKS
EDENTON        CLOUDY    73  60  63 E5        30.16F
ELIZABETH CITY CLOUDY    71  57  61 SE12      30.17F
KITTY HAWK     CLOUDY    68  56  65 E5        30.17S
MANTEO         CLOUDY    69  57  65 E5        30.18S

$$

NCZ045>047-081-094-103-104-062300-
CENTRAL COAST

CITY           SKY/WX    TMP DP  RH WIND       PRES   REMARKS
FRISCO         CLOUDY    69  57  65 E10       30.16F
SWANQUARTER      N/A     72 N/A N/A E7        30.12S

$$

NCZ095-097-098-100-101-062300-
SOUTHERN COAST

CITY           SKY/WX    TMP DP  RH WIND       PRES   REMARKS
BEAUFORT       CLOUDY    71  59  65 E7        30.14S
CEDAR ISLAND     N/A     72 N/A N/A NE8       30.18S
JACKSONVILLE   CLOUDY    72  55  55 E10       30.14S
PINEY ISLAND   CLOUDY   N/A N/A N/A E10       30.15S
WILMINGTON     CLOUDY    71  57  61 NE12      30.14S


$$

NCZ011>013-027>030-043-044-078>080-089-090>093-098-062300-
COASTAL PLAIN

CITY           SKY/WX    TMP DP  RH WIND       PRES   REMARKS
AHOSKIE        PTSUNNY   75  57  53 SE3       30.15F
CLINTON        PTSUNNY   77  49  37 E6        30.14R
ELIZABETHTOWN  PTSUNNY   77  54  45 E6        30.12S
GOLDSBORO      PTSUNNY   77  51  40 E10       30.12S
GREENVILLE     CLOUDY    75  55  50 SE8       30.17S
HAVELOCK       CLOUDY    72  57  59 E9        30.16S
KENANSVILLE    CLOUDY    74  53  46 E5        30.15S
KINSTON        CLOUDY    75  50  41 E7        30.16S
NEW BERN       CLOUDY    72  58  61 E7        30.16F
RICHLANDS      CLOUDY    73  57  56 SE5       30.15S
ROCKY MOUNT    PTSUNNY   78  57  48 VRB6      30.14F
WASHINGTON     CLOUDY    72  55  56 SE7       30.17S
WHITEVILLE     CLOUDY    74  55  51 E7        30.12S

$$

AMZ130-135-150-152-154-156-158-170-250-252-270-ANZ085-086-088-633-658-670-062300-
MARINE OBSERVATIONS

STATION/POSITION TIME  TEMP    WIND        PRES    WAVE   SWELL
                       AIR SEA DIR/SP/G            HT/PER HT/PER
                 (UTC) (F)     (DEG/KT/KT) (MB)    (FT/S) (FT/S)
CHESAPEAKE LIGHT 2100   65     160/ 16/ 16 1022.2
64 E VA BEACH    2150   66 61   70/  2/  2 1021.9    2/ 8   2/ 8
DUCK             2100   65 53  100/  8/  9 1021.0
2 E DUCK         2111      59                N/A     2/10
OREGON INLET     2100   68 70   50/  7/  9 1021.9
13E OREGON INLT  2200      63                N/A     2/ 6
HATTERAS CG      2100           90/  7/  9 1021.0
DIAMOND BUOY     2150   71 74  100/ 14/ 17 1020.9    4/ 8   2/ 8
CAPE LOOKOUT     2200   69      60/  8/  9 1020.3
BEAUFORT LAB     2100           60/  5/ 11 1019.8
27 SE WRIGHTSVLE 2100   68 71   80/ 16/ 17   N/A
5 SE WRIGHTSVLE  2108   69 68   50/ 12/ 16 1020.2
225 S CAPE HAT   2150   70 70  130/ 12/ 16 1016.6    8/ 7   7/ 7
41 SE CHARLESTON 2150   71 73   30/ 21/ 25 1017.6    8/ 8   5/ 8

$$



USA.gov is the U.S. government's official web portal to all federal, state and local government web resources and services.